Location: Alafon
(8.4500°N, 4.2333°E)
Time: 18:39:34
(UTC+00:00)

deb Explorer IX - Pass Details

Date: 27 July 2021
Orbit: 545 x 1091 km, 38.8° (Epoch: 20 September)

Event Time Altitude Azimuth Distance (km) Brightness Sun altitude
Rises 22:58:34 0° 294° (WNW) 3,886 - -59.8°
Reaches altitude 10° 23:01:39 10° 285° (WNW) 2,914 - -60.1°
Maximum altitude 23:07:55 33° 224° (SW) 1,668 - -60.7°
Drops below altitude 10° 23:13:46 10° 162° (SSE) 2,699 - -61.2°
Sets 23:16:32 0° 152° (SSE) 3,564 - -61.4°
